Weather History for Fort Polk, LA

Change the Weather History Date:

Thursday, January 17, 2013

  Actual Average (KPOE) Record (KPOE)
Temperature  
Mean Temperature 44 °F -  
Max Temperature 59 °F 58 °F 77 °F (1999)
Min Temperature 30 °F 38 °F 23 °F (1997)
Degree Days  
Heating Degree Days 20    
Moisture  
Dew Point 30 °F    
Average Humidity 63    
Maximum Humidity 89    
Minimum Humidity 31    
Precipitation  
Precipitation 0.00 in - - ()
Sea Level Pressure  
Sea Level Pressure 30.41 in    
Wind  
Wind Speed 2 mph (NNW)    
Max Wind Speed 8 mph    
Max Gust Speed -    
Visibility 10 miles    
Events      
Averages and records for this station are not official NWS values.
T = Trace of Precipitation, MM = Missing Value Source: NWS Daily Summary

Daily Weather History Graph

Daily Weather History Graph

Search for Another Location

Airport:

Trip Planner

Search our weather history database for the weather conditions in past years. The results will help you decide how hot, cold, wet, or windy it might be!

Date:

Astronomy

Jan. 17, 2013 Rise Set
Actual Time 7:09 AM CST 5:34 PM CST
Civil Twilight 6:43 AM CST 6:00 PM CST
Nautical Twilight 6:14 AM CST 6:29 PM CST
Astronomical Twilight 5:45 AM CST 6:58 PM CST
Moon 10:46 AM CST 11:54 PM CST
Length of Visible Light 11h 16m
Length of Day
10h 24m
Waxing Crescent, 38% of the Moon is Illuminated
Jan 17
Waxing Crescent
Jan 18
First Quarter
Jan 26
Full
Feb 3
Last Quarter
Feb 10
New

Hourly Weather History & Observations

Time (CST) Temp. Windchill Dew Point Humidity Pressure Visibility Wind Dir Wind Speed Gust Speed Precip Events Conditions
12:54 AM 34.0 °F - 30.0 °F 85% 30.29 in 10.0 mi Calm Calm - N/A   Clear
1:54 AM 37.0 °F - 27.0 °F 67% 30.30 in 10.0 mi Calm Calm - N/A   Clear
2:54 AM 36.0 °F - 27.0 °F 70% 30.31 in 10.0 mi Calm Calm - N/A   Clear
3:54 AM 36.0 °F 33.3 °F 26.1 °F 67% 30.32 in 10.0 mi Variable 3.5 mph - N/A   Clear
4:54 AM 36.0 °F 32.1 °F 26.1 °F 67% 30.31 in 10.0 mi Variable 4.6 mph - N/A   Clear
5:54 AM 33.1 °F - 26.1 °F 75% 30.34 in 10.0 mi Calm Calm - N/A   Clear
6:54 AM 30.9 °F - 26.1 °F 82% 30.36 in 10.0 mi Calm Calm - N/A   Clear
7:54 AM 34.0 °F - 28.0 °F 79% 30.38 in 10.0 mi Calm Calm - N/A   Clear
8:54 AM 43.0 °F - 28.9 °F 58% 30.41 in 10.0 mi Calm Calm - N/A   Clear
9:54 AM 48.0 °F - 26.1 °F 42% 30.43 in 10.0 mi NW 3.5 mph - N/A   Clear
10:54 AM 51.1 °F - 26.1 °F 38% 30.43 in 10.0 mi Variable 4.6 mph - N/A   Clear
11:54 AM 55.0 °F - 25.0 °F 31% 30.40 in 10.0 mi Variable 6.9 mph - N/A   Clear
12:54 PM 55.9 °F - 28.0 °F 34% 30.38 in 10.0 mi Variable 5.8 mph - N/A   Clear
1:54 PM 57.9 °F - 30.9 °F 36% 30.37 in 10.0 mi Variable 5.8 mph - N/A   Clear
2:54 PM 59.0 °F - 30.9 °F 35% 30.36 in 10.0 mi NNE 8.1 mph - N/A   Clear
3:54 PM 57.9 °F - 30.9 °F 36% 30.39 in 10.0 mi Variable 5.8 mph - N/A   Clear
4:54 PM 55.0 °F - 33.1 °F 43% 30.43 in 10.0 mi Variable 4.6 mph - N/A   Clear
5:54 PM 48.9 °F - 35.1 °F 59% 30.45 in 10.0 mi Calm Calm - N/A   Clear
6:54 PM 45.0 °F - 35.1 °F 68% 30.48 in 10.0 mi Calm Calm - N/A   Clear
7:54 PM 39.9 °F - 34.0 °F 79% 30.49 in 10.0 mi Calm Calm - N/A   Clear
8:54 PM 37.9 °F - 34.0 °F 86% 30.51 in 10.0 mi Calm Calm - N/A   Clear
9:54 PM 37.0 °F - 34.0 °F 89% 30.52 in 10.0 mi Calm Calm - N/A   Clear
10:54 PM 36.0 °F - 33.1 °F 89% 30.53 in 10.0 mi Calm Calm - N/A   Clear
11:54 PM 35.1 °F - 32.0 °F 89% 30.54 in 10.0 mi Calm Calm - N/A   Clear